Regional Weather Roundup
Issued by NWS

Home | Current Version | Previous Version | Graphics & Text | Print | Product List | Glossary On
Versions: 1 2 3 4 5 6 7 8 9 10 11 12 13 14 15 16 17 18 19 20 21 22 23 24 25 26 27 28 29 30 31 32 33 34 35 36 37 38 39 40 41 42 43 44 45 46 47 48 49 50
674
ASUS44 KMEG 201310
RWRTN
TENNESSEE HOURLY STATE WEATHER ROUNDUP
NATIONAL WEATHER SERVICE MEMPHIS TN
800 AM CDT SUN AUG 20 2017

TNZ002-004-019-021-049-052-054-088>092-201400-
WEST TENNESSEE

CITY           SKY/WX    TMP DP  RH WIND       PRES   REMARKS
MEMPHIS INTL   MOSUNNY   82  77  84 SW3       30.04R HX  90
NWS MEMPHIS      N/A     80 N/A N/A MISG        N/A
JACKSON        SUNNY     75  73  93 CALM      30.05R
DYERSBURG      SUNNY     77  74  90 SE5       30.05R
SOMERVILLE     SUNNY     79  75  89 CALM      30.04R
COVINGTON      SUNNY     77  75  94 CALM      30.03S
UNION CITY     SUNNY     73  72  94 SE3       30.04R
BOLIVAR        SUNNY     77  75  94 CALM      30.04S
PARIS          SUNNY     73  72  94 CALM      30.05S
HUNTINGDON     SUNNY     73  72  94 CALM      30.05S
LEXINGTON      SUNNY     72  72 100 CALM      30.06S
SELMER         SUNNY     75  75 100 CALM      30.06R
SAVANNAH       SUNNY     75  73  94 CALM      30.05S
$$

TNZ008-025-027-028-033-062-065-066-201400-
NORTH MIDDLE TENNESSEE

CITY           SKY/WX    TMP DP  RH WIND       PRES   REMARKS
NASHVILLE      MOSUNNY   76  71  85 CALM      30.09R
PORTLAND       SUNNY     75  72  88 CALM      30.09R
CLARKSVILLE    SUNNY     73  71  93 CALM      30.08R
SMYRNA         MOSUNNY   75  70  84 CALM      30.10R
COOKEVILLE     SUNNY     72  68  88 CALM      30.11R
GALLATIN       SUNNY     73  70  88 CALM      30.11R
CROSSVILLE     SUNNY     73  67  81 CALM      30.16R
$$

TNZ061-075-076-078-094-096-097-201400-
SOUTH MIDDLE TENNESSEE

CITY           SKY/WX    TMP DP  RH WIND       PRES   REMARKS
FAYETTEVILLE   SUNNY     75  72  88 CALM      30.09R
TULLAHOMA      MOSUNNY   75  68  78 CALM      30.11S
WINCHESTER     PTSUNNY   72  70  94 CALM      30.11S
MCMINNVILLE    MOSUNNY   73  73 100 VRB3      30.12R
COLUMBIA       MOSUNNY   72  72 100 CALM      30.07R
SHELBYVILLE    PTSUNNY   75  72  88 E3        30.09R
$$

TNZ017-018-042-046-047-201400-
NORTHEAST TENNESSEE

CITY           SKY/WX    TMP DP  RH WIND       PRES   REMARKS
TRI CITIES     SUNNY     69  66  90 NE3       30.16R
ELIZABETHTON   SUNNY     70  64  83 E5        30.16S
$$

TNZ012-013-036-069-073-074-201400-
CENTRAL EAST TENNESSEE

CITY           SKY/WX    TMP DP  RH WIND       PRES   REMARKS
KNOXVILLE      MOSUNNY   72  66  81 CALM      30.11R
OAK RIDGE      CLOUDY    70  69  97 CALM      30.13R
DOWNTOWN KNOXV SUNNY     72  70  94 CALM      30.11S
GATLINBURG     SUNNY     70  64  83 CALM      30.12S
MORRISTOWN     SUNNY     73  68  83 VRB3      30.13S
JACKSBORO      MOSUNNY   70  68  94 CALM      30.17R
$$

TNZ083-085-099-201400-
SOUTHEAST TENNESSEE

CITY           SKY/WX    TMP DP  RH WIND       PRES   REMARKS
CHATTANOOGA    MOSUNNY   74  68  81 CALM      30.11R
DAYTON         CLOUDY    72  70  94 CALM      30.11R
$$

SKY/WX REPORTED AS FAIR MEANS FEW OR NO CLOUDS BELOW
12 THOUSAND FEET.





USA.gov is the U.S. government's official web portal to all federal, state and local government web resources and services.